sat.trackr.live / text

‹ back to catalog

GAOFEN-6

NORAD 43484 · 2018-048A

PAYLOAD ACTIVE UNKNOWN

§ Identity

Operator
Country
PRC
Launch date
2018-06-02
Launch site
JSC
Launch vehicle
Mass (kg)
RCS (m²)

Purposes: earth_obs

External: N2YO · Heavens-Above · Gunter

§ Orbital elements

Epoch: 2026-05-25T04:00:17.983584Z

Period
97.52 min
Inclination
97.7765°
Eccentricity
0.0010616
Mean motion
14.76599378 rev/d
Perigee alt
632.6 km
Apogee alt
647.5 km
Semi-major
7,018.2 km
B*
4.5485e-5
RAAN
208.6932°
Arg perigee
247.3188°
Mean anomaly
112.6900°
Rev number
42,999

§ Raw data

GAOFEN-61 43484U 18048A   26145.16687481  .00000269  00000+0  45485-4 0  99992 43484  97.7765 208.6932 0010616 247.3188 112.6900 14.76599378429994

JSON: /api/v1/satellites/43484 · /tle

For live sub-satellite position, see the globe view (requires WebGL).

§ Visibility from observer

Set your observer location to see the next 7 days of passes ≥ 10°. The values pass through the URL so the page stays shareable.

No JS? Fill the form by hand. The geolocation button needs JavaScript.

§ Radio — SatNOGS DB

ModeDescriptionDownlinkUplink
FM S-band telemetry 2.205 GHz

1 transmitter · refreshed weekly from db.satnogs.org